STARLINK-11568, 63307

Orbit data source: Space-Track

STARLINK-11568, 63307 is a payload satellite owned by SpaceX/Seattle (US) in LEO that was launched on Tue, 18 Mar 2025 UTC via an FALCON 9 launch vehicle from the Air Force Eastern Test Range (AFETR). Payload-class satellites include a variety of spacecraft equipped with specific instruments for various scientific and technological missions. These include communications satellites like Starlink; space stations such as the ISS; scientific satellites like the Hubble; Earth observation satellites from companies like Planet Labs, Umbra, and HawkEye 360; GPS; miniature CubeSats for education and research; and military/defense satellites.

Loading next visibility...
Identifier
63307, 2025-057A
Orbit
LEO
Country
Flag of USUS
Related business
Manufacturer
SpaceX/Seattle
Mission
Operational Commercial Communications
Bus & Motor
STARLINK V2MD, Unknown motor
Mass
960 kg wet, ~910 kg dry
Launch date (UTC)
2025-03-18 (1 year ago)
Launch vehicle
FALCON 9
Launch site
Air Force Eastern Test Range (AFETR)
Object type
Payload
Rocket body
Debris
Shape & HBR
Box + 2 Pan, 18.1 m
Radar Cross Section
36.964 m², Large (>1 m²)

Expand to show TLE details & history
Last TLE update: 15 hours ago

TLE from 15 hours ago
0 STARLINK-11568
1 63307U 25057A   26126.43828541  .00188520  00000-0  14360-2 0  9990
2 63307  42.9980 276.1132 0001541 251.7492 108.3208 15.70899446 66261
Epoch: 2026-05-06T10:31Z
TLE epoch observation values (Epoch: 2026-05-06T10:31:07.859Z)
Latitude
-0.00001°
Longitude
-105.96834°
Altitude
356.422 km
Speed
7.697 km/s
True Right ascension
18h 24m 27s
True Declination
0° 00' 00"
Sunlit
Object was in full shadow at epoch
Visualization orbit readout
Latitude
Unknown
Longitude
Unknown
Altitude
Unknown
Speed
Unknown
Apparent Right ascension
Unknown
Apparent Declination
Unknown
Sunlit
N/A
Visualization observer readout
Local Sidereal Time
09:43:43
Azimuth
Unknown
Elevation
Unknown
Doppler factor
Unknown
Orbital elements
Apogee altitude
359.345 km
Perigee altitude
357.269 km
Semi-major axis
6,736.444 km
Eccentricity
0.00015
Inclination
42.998°
RAAN
276.1132°
Arg. of periapsis
251.7492°
True anomaly
108.33756°
Mean anomaly
108.3208°
Eccentric anomaly
108.32918°
Mean motion
3.92552 °/min
Orbital period
91.71 mins
BSTAR
0.001436
Loading maneuver chart data...
Computing Atmospheric mass density...
Loading historical data...
Loading historical data...
Loading historical data...
Loading historical data...
Loading historical data...
Loading historical data...
Loading historical data...

Documentation

Showing up to 5 results
|